Location: *
(45.9500°N, 9.0833°E)
Time: 07:17:42
(UTC+00:00)

CSL-04 Debris - Pass Details

Date: 03 March 2021
Orbit: 826 x 848 km, 98.9° (Epoch: 18 April)

Event Time Altitude Azimuth Distance (km) Brightness Sun altitude
Rises 18:22:40 0° 163° (SSE) 3,370 7.1 -12.9°
Reaches altitude 10° 18:25:00 10° 163° (SSE) 2,443 6.4 -13.3°
Maximum altitude 18:30:26 88° 77° (ENE) 848 4.2 -14.2°
Drops below altitude 10° 18:35:57 10° 346° (NNW) 2,475 6.9 -15.2°
Sets 18:38:20 0° 346° (NNW) 3,417 7.6 -15.6°
